Content
SEND FEEDBACK

Daily
Averages
Monthly
Summary
United States of America

CENTERVILLE, ARKANSAS


Home > North America > United States > Arkansas
Elevation: 370 feet     Latitude: 35 14N     Longitude: 093 10W

WEATHER
 
SELECT A DAY
Number of Records: 164,786;   Date Range: 1/12/99 - 7/7/14
 
SHARE

PRINT THIS DATA

[ ← Previous Day ]
WEATHER ALMANAC - JANUARY 31, 2013
[ Next Day → ]
[ °C ]   °F
Weather ElementAverageHighLow
Temperature40.8 °F57 °F (2:53 pm)26.1 °F (5:53 am)
Dewpoint25.2 °F30 °F (12:53 pm)12.9 °F (9:53 pm)
Humidity59.1 %92 % (3:53 am)28 % (3:53 pm)
Barometer30.13 in30.34 in (9:53 pm)30.06 in (3:53 am)
Wind Speed5.2 mph15 mph (7:53 pm)
Wind Gust24.2 mph (7:53 pm)
Weather ElementAverage
Visibility9.2 mi
Wind DirectionSSE (153.2 °)

Weather ElementTotal
Precipitation---
Heating Degree Days23.5 (Base 65)
Averaged from 19 records on January 31, 2013
WEATHER CONDITIONS BREAKOUT
WIND DIRECTION BREAKOUT
WEATHER BY HOUR - JANUARY 31, 2013
[ °C ]   °F
Local TimeTemperatureDewpointHumidityBarometerVisibilityWind DirectionWind SpeedGust SpeedPrecipitationEventsConditions
1:53 AM30.9 °F25.0 °F79 %30.08 in10.0 miCalmClear
2:53 AM28.9 °F26.1 °F89 %30.07 in10.0 miCalmClear
3:53 AM27.0 °F25.0 °F92 %30.06 in9.0 miCalmClear
4:53 AM27.0 °F24.1 °F89 %30.07 in8.0 miCalmClear
5:53 AM26.1 °F24.1 °F92 %30.09 in7.0 miCalmClear
6:53 AM26.1 °F21.9 °F84 %30.11 in6.0 miCalmClear
7:53 AM26.1 °F24.1 °F92 %30.12 in5.0 miCalmClear
9:53 AM39.9 °F28.9 °F65 %30.14 in10.0 miCalmClear
10:53 AM43.0 °F27.0 °F53 %30.14 in10.0 miCalmClear
11:53 AM46.9 °F28.0 °F48 %30.13 in10.0 miNorth (350°)5.8 mphClear
12:53 PM51.1 °F30.0 °F44 %30.10 in10.0 miWest (280°)4.6 mphClear
1:53 PM54.0 °F28.9 °F38 %30.06 in10.0 miCalmClear
2:53 PM57.0 °F27.0 °F32 %30.06 in10.0 miNW (320°)10.4 mphClear
3:53 PM57.0 °F24.1 °F28 %30.06 in10.0 miNW (310°)12.7 mph17.3 mphClear
4:53 PM57.0 °F24.1 °F28 %30.08 in10.0 miWNW (290°)12.7 mphClear
6:53 PM50.0 °F28.0 °F43 %30.19 in10.0 miNNW (340°)12.7 mph17.3 mphClear
7:53 PM46.0 °F28.0 °F50 %30.26 in10.0 miNNW (340°)15.0 mph24.2 mphOvercast
8:53 PM42.1 °F21.0 °F43 %30.31 in10.0 miNNW (340°)12.7 mph20.7 mphOvercast
9:53 PM39.0 °F12.9 °F34 %30.34 in10.0 miNNW (340°)12.7 mph21.9 mphScattered Clouds
Hourly data recorded from KRUE, located miles away from Centerville, Arkansas







STORIES FROM OUR PARTNERS